Flag for Germany Weather past 2 weeks in Haltern am See, North Rhine-Westphalia, Germany

Now
59 °F

Overcast.


Feels Like: 58 °F
Forecast: 52 / 64 °F
Wind: 6 mph from Southwest

Location: Muenster / Osnabrueck

Current Time: Jul 28, 2015 at 3:29:59 AM

Latest Report: Jul 28, 2015 at 3:00 AM


Visibility: 22 mi

Pressure: 29.60 "Hg

Humidity: 71%

Dew point: 49 °F

Location of Haltern am SeeLocation

Historic Weather in Haltern am See — Graph

°F

Haltern am See temperature yesterday

Maximum temperature yesterday: 65 °F (at 6:00 PM)
Minimum temperature yesterday: 56 °F (at 3:00 AM)
Average temperature yesterday: 61 °F

Past Weeks' High & Low Weather Summary

 TemperatureHumidityPressure
High89 °F (Jul 17, 5:00 PM)98% (Jul 16, 4:00 AM)30.12 "Hg (Jul 16, 4:00 AM)
Low51 °F (Jul 20, 5:00 AM)33% (Jul 17, 5:00 PM)29.47 "Hg (Jul 25, 9:00 AM)
Average66 °F73%29.90 "Hg
* Reported Jul 13 2:00 AM — Jul 28 2:00 AM, Haltern am See, Weather by CustomWeather, © 2015

Note: Actual official high and low records may vary slightly from our data, if they occured in-between our weather recording intervals... More about our weather records

Advertising

Haltern am See weather history for previous 24 hours

 ConditionsComfort  
Time TempWeatherWind HumidityBarometerVisibility
2:00 AM
Tue, Jul 28
60 °FPassing clouds.7 mph69%29.60 "Hg22 mi
1:00 AM62 °FPassing clouds.8 mph68%29.59 "Hg25 mi
11:00 PM
Mon, Jul 27
63 °FPassing clouds.6 mph72%29.57 "Hg22 mi
10:00 PM64 °FOvercast.5 mph73%29.57 "Hg22 mi
9:00 PM65 °FLight rain. Overcast.8 mph74%29.57 "Hg25 mi
8:00 PM64 °FPartly sunny.8 mph77%29.56 "Hg25 mi
7:00 PM64 °FPartly sunny.8 mph79%29.56 "Hg19 mi
6:00 PM65 °FOvercast.6 mph80%29.55 "Hg19 mi
5:00 PM63 °FSprinkles. Overcast.7 mph84%29.55 "Hg9 mi
4:00 PM61 °FSprinkles. Overcast.8 mph92%29.54 "Hg4 mi
3:00 PM62 °FSprinkles. Overcast.8 mph86%29.50 "Hg12 mi
2:00 PM62 °FSprinkles. Overcast.10 mph85%29.50 "Hg12 mi
1:00 PM64 °FSprinkles. Overcast.10 mph75%29.50 "Hg7 mi
12:00 PM65 °FOvercast.9 mph72%29.50 "Hg16 mi
11:00 AM62 °FOvercast.7 mph81%29.50 "Hg16 mi
10:00 AM62 °FOvercast.6 mph78%29.50 "Hg16 mi
9:00 AM60 °FOvercast.6 mph86%29.50 "Hg12 mi
8:00 AM58 °FLow clouds.5 mph92%29.50 "Hg6 mi
7:00 AM57 °FLow clouds.3 mph95%29.50 "Hg4 mi
5:00 AM56 °FLow clouds.3 mph91%29.54 "Hg7 mi
4:00 AM56 °FLow clouds.5 mph90%29.56 "Hg9 mi
3:00 AM56 °FOvercast.3 mph88%29.57 "Hg12 mi
Weather by CustomWeather, © 2015

See weather overviewHow to use our weather pages